スペースウォッチ彗星

293P/Spacewatch (2020)

English version
Home page
Updated on September 18, 2021

---------------------------------------------------------------------

・ プロフィール

・ 写真集

・ 軌道要素

Epoch 2020 Dec. 17.0 TT = JDT 2459200.5
T 2020 Dec. 19.27475 TT                                 Rudenko
q   2.1198398            (2000.0)            P               Q
n   0.14167641     Peri.   41.05852     -0.48395035     -0.86140252
a   3.6442181      Node    78.41174     +0.75613446     -0.50032094
e   0.4183005      Incl.    9.05653     +0.44051418     -0.08754802
P   6.96
From 447 observations 2006 Nov. 15-2021 Apr. 18, mean residual 0".7.

・ 光度変化

        m1 = 14.5 + 5 logΔ + 10.0 log r

---------------------------------------------------------------------

軌道要素はM.P.E.C. 2021-J28に掲載されたものです。
光度グラフはComet for Windowsで作成したものです。

---------------------------------------------------------------------

Copyright(C) Seiichi Yoshida (comet@aerith.net). All rights reserved.